User: anonymous   Login
Location: Oshawa
(43.9000°N, 78.8670°W)
Time: 01:30:39
(UTC-05:00)
Language:

Cosmos 2333 Rocket - Orbit

View from above orbital plane
View from above orbital plane
View from above satellite
View from above satellite

Ground track
Ground track

The orbit data is extracted from the following two-line orbital elements,

1 24298U 96051B   15063.56044137 -.00000167  00000-0 -63963-4 0  9998
2 24298 070.8523 023.5641 0016536 336.0372 143.9331 14.12435309953832
Epoch (UTC): 04 March 2015 13:27:02
Eccentricity: 0.0016536
inclination: 70.8523°
perigee height: 839 km
apogee height: 863 km
right ascension of ascending node: 23.5641°
argument of perigee: 336.0372°
revolutions per day: 14.12435309
mean anomaly at epoch: 143.9331°
orbit number at epoch: 95383

The dashed part of the orbit path shows where the satellite is in the earth's shadow,  

DLR